Location: Breezy Point Observatory
(38.9725°N, 81.7133°W)
Time: 14:56:33
(UTC-05:00)

Hubble Space Telescope - Visible Passes

Search period start: 17 December 2014 00:00
Search period end: 27 December 2014 00:00
Orbit: 545 x 549 km, 28.5° (Epoch: 17 December)

Date Brightness Start Highest point End Pass type
(mag) Time Alt. Az. Time Alt. Az. Time Alt. Az.
17 Dec 2.9 18:30:40 10° SW 18:33:39 19° S 18:36:23 11° SE visible
18 Dec 3.0 18:22:52 10° SW 18:25:49 19° S 18:28:46 10° SE visible
18 Dec 3.9 20:04:48 10° SW 20:04:48 10° SW 20:04:48 10° SW visible
19 Dec 3.1 18:15:07 10° SW 18:17:59 18° S 18:20:51 10° SE visible
20 Dec 3.3 18:07:25 10° SW 18:10:08 17° S 18:12:50 10° SSE visible
21 Dec 3.4 17:59:48 10° SW 18:02:16 15° SSW 18:04:44 10° SSE visible
22 Dec 3.5 17:52:19 10° SW 17:54:24 14° SSW 17:56:28 10° SSE visible
23 Dec 3.7 17:45:05 10° SW 17:46:30 12° SSW 17:47:55 10° S visible
